FENGYUN 1C DEB

Satellite information

Favourite Embed

Satellite Type and Status

DEBRISIN ORBIT

Key statistics

Satellite FENGYUN 1C DEB at a glance.

Uptime

9658

Days in orbit

Revolutions

≈ 14.0

Per day

Orbit

SSO

Sun Synchronous Orbit

Inclination

98.9

Latest

Satellite identification and parameters

Extended collection of information and parameters for FENGYUN 1C DEB.

Object identification

Identified? True

Debris? True

Object name: FENGYUN 1C DEB

International designator: 1999-025BMC

Object number (NORAD): 31246

Object ID (CCSDS): 31246

Country: PEOPLES REPUBLIC OF CHINA (PRC)

Current information (Y/N): Y

RCS size: SMALL

Orbital parameters

Period: 102.797 minutes

Inclination: 98.8652 deg

SMA: 7269.105 km

Apoapsis: 1007.187 km

Periapsis: 774.752 km

RAAN: 14.7255 deg

Eccentricy: 0.0159879

Argument of periapsis: 90.855 deg

Mean anomaly: 271.0937 deg

Mean motion: 14.00816956 rev/day

Mean motion (dot): 0.00006218 rev/day2

B* drag term: 0.0037496 1/REarth

Two-line elements (TLE)

Creation date: April 9, 2025, 5:16 p.m.

Reference frame: TEME

Reference center: EARTH

Epoch: June 7, 2024, 9:05 a.m. UTC

TLE line 0: 0 FENGYUN 1C DEB

TLE line 1: 1 31246U 99025BMC 24159.37861050 .00006218 00000-0 37496-2 0 9990

TLE line 2: 2 31246 98.8652 14.7255 0159879 90.8550 271.0937 14.00816956877737

Live tracking on map

Real-time ground track for satellite FENGYUN 1C DEB.

In-orbit conjunctions

A list of the most updated potential collisions computed for object FENGYUN 1C DEB.

Target Orbit TCA Probability of collision Miss distance Type
COSMOS 1727 LEO 2024-06-01 18:55:17 0.0001307528 303.0 (m) PAYLOAD

Associated space launch

Chinese polar orbiting meteorological satellite

FENGYUN 1C DEB was lifted into orbit during the mission ‘Long March 4B | Feng Yun 1C’, on board a Long March 4B space rocket.

The launch took place on May 10, 1999, 1:33 a.m. from Launch Complex 7.

For more information about the launch, click the button.

Launch to space Long March 4B | Feng Yun 1C
Long March 4B | Feng Yun 1C

Agency: N/A

Status: Launch Successful

Launch date: May 10, 1999, 1:33 a.m. UTC

Rocket: Long March 4B

Launch pad: Launch Complex 7

Location: Taiyuan Satellite Launch Center, People's Republic of China

...

Latest news about this satellite

There are no fresh news available about this satellite. Check back as we update our databases every day.


Newsletter sign-up

Weekly statistics, charts and insights to help you stay on top of the space industry.